Home > Weather > Coral Harbour > Past weeks

Flag for Canada Past Weather in Coral Harbour, Nunavut, Canada — Yesterday and Last 2 Weeks

Now
37 °F

Passing clouds.


Feels Like: 30 °F
Forecast: 35 / 52 °F
Wind: 10 mph from Northwest

Location: Coral Harbour

Current Time: Jun 25, 2016 at 12:26:09 AM

Latest Report: Jun 25, 2016 at 12:00 AM


Visibility: 15 mi

Pressure: 29.81 "Hg

Humidity: 81%

Dew Point: 32 °F

Location of Coral HarbourLocation

Past Weather in Coral Harbour — Graph

°F

Coral Harbour Temperature Yesterday

Maximum temperature yesterday: 48 °F (at 1:00 PM)
Minimum temperature yesterday: 37 °F (at 2:00 AM)
Average temperature yesterday: 43 °F

High & Low Weather Summary for the Past Weeks

 TemperatureHumidityPressure
High54 °F (Jun 22, 3:00 PM)100% (Jun 10, 12:00 AM)30.31 "Hg (Jun 10, 12:00 AM)
Low28 °F (Jun 12, 12:00 AM)54% (Jun 15, 4:00 PM)29.24 "Hg (Jun 18, 9:00 AM)
Average40 °F83%29.84 "Hg
* Reported Jun 9 11:00 PM — Jun 24 11:00 PM, Coral Harbour, Weather by CustomWeather, © 2016

Note: Actual official high and low records may vary slightly from our data, if they occured in-between our weather recording intervals... More about our weather records

Advertising

Coral Harbour Weather History for the Previous 24 Hours

Scroll right to see more
 ConditionsComfort  
Time TempWeatherWind HumidityBarometerVisibility
11:00 PM
Fri, Jun 24
39 °FPassing clouds.13 mph75%29.80 "Hg15 mi
10:00 PM41 °FPassing clouds.14 mph70%29.80 "Hg15 mi
9:00 PM43 °FPassing clouds.16 mph71%29.79 "Hg15 mi
8:00 PM46 °FScattered clouds.18 mph62%29.78 "Hg15 mi
7:00 PM46 °FPartly sunny.23 mph62%29.78 "Hg15 mi
6:00 PM46 °FPartly sunny.22 mph62%29.76 "Hg15 mi
5:00 PM46 °FScattered clouds.23 mph66%29.76 "Hg15 mi
4:00 PM48 °FPassing clouds.28 mph62%29.75 "Hg15 mi
3:00 PM48 °FScattered clouds.26 mph62%29.74 "Hg15 mi
2:00 PM48 °FScattered clouds.25 mph58%29.73 "Hg15 mi
1:00 PM48 °FPassing clouds.21 mph66%29.73 "Hg15 mi
12:00 PM46 °FPassing clouds.24 mph66%29.72 "Hg15 mi
11:00 AM46 °FPassing clouds.24 mph66%29.71 "Hg15 mi
10:00 AM45 °FPassing clouds.22 mph71%29.71 "Hg15 mi
9:00 AM45 °FPassing clouds.25 mph71%29.70 "Hg15 mi
8:00 AM43 °FPassing clouds.22 mph71%29.70 "Hg15 mi
7:00 AM41 °FScattered clouds.23 mph76%29.69 "Hg15 mi
6:00 AM41 °FOvercast.18 mph76%29.69 "Hg15 mi
5:00 AM37 °FOvercast.14 mph87%29.69 "Hg15 mi
4:00 AM37 °FPartly sunny.15 mph81%29.68 "Hg15 mi
3:00 AM37 °FPassing clouds.18 mph87%29.67 "Hg15 mi
2:00 AM37 °FPassing clouds.17 mph87%29.67 "Hg15 mi
1:00 AM39 °FOvercast.21 mph81%29.66 "Hg15 mi
12:00 AM39 °FOvercast.16 mph81%29.67 "Hg15 mi
Weather by CustomWeather, © 2016

See weather overviewHow to use our weather pages